Regional Weather Roundup
Issued by NWS

Home | Current Version | Previous Version | Text Only | Print | Product List | Glossary On
Versions: 1 2 3 4 5 6 7 8 9 10 11 12 13 14 15 16 17 18 19 20 21 22 23 24 25 26 27 28 29 30 31 32 33 34 35 36 37 38 39 40 41 42 43 44 45 46 47 48 49 50
000
ASUS46 KSTO 010015
RWRCA

NORTHERN AND CENTRAL CA REGIONAL WEATHER ROUNDUP
NATIONAL WEATHER SERVICE SACRAMENTO CA
500 PM PDT FRI SEP 30 2016

NOTE: FAIR INDICATES FEW OR NO CLOUDS BELOW 12,000 FEET WITH NO
SIGNIFICANT WEATHER AND/OR OBSTRUCTIONS TO VISIBILITY.

CAZ001-003-010100-
NORTHWEST AREA

CITY           SKY/WX    TMP DP  RH WIND       PRES   REMARKS
CRESCENT CITY  CLOUDY    58  47  66 S8        30.11F
UKIAH          PTSUNNY   66  40  38 VRB6G24   30.06F
$$

CAZ006-505>513-010100-
BAY AREA

CITY           SKY/WX    TMP DP  RH WIND       PRES   REMARKS
SANTA ROSA     PTSUNNY   73  24  16 NW10      30.01S
SAN RAFAEL     N/A       63  MM  MM MISG
NAPA           SUNNY     69  45  41 W20G28    30.02F
CONCORD        SUNNY     68  42  38 SW18G26   30.04F
OAKLAND CITY   N/A       62  MM  MM MISG
OAKLAND        MOSUNNY   65  50  58 W25       30.08F
SAN FRAN CITY  N/A       59  MM  69 MISG
SAN FRAN ARPT  MOSUNNY   62  48  60 W22G30    30.10F
LIVERMORE      SUNNY     65  44  46 W16       30.06F
HAYWARD        SUNNY     64  47  53 W21       30.08F
REDWOOD CITY   N/A       64  MM  58 MISG
MOFFETT ARPT   SUNNY     67  44  43 W14       30.09F
SAN JOSE ARPT  MOSUNNY   67  43  41 NW18      30.09S
$$
CAZ034-037-514>518-010100-
CENTRAL COAST

CITY           SKY/WX    TMP DP  RH WIND       PRES   REMARKS
WATSONVILLE    SUNNY     70  48  45 SE6       30.05F
SALINAS        SUNNY     63  47  55 W12       30.07F
MONTEREY       SUNNY     61  48  62 W12G20    30.10F
SAN LUIS OBISP SUNNY     69  51  52 NW18      30.01S
SANTA MARIA    SUNNY     63  52  67 NW20      30.03F
$$
CAZ015-016-010100-
NORTHERN SACRAMENTO VALLEY

CITY           SKY/WX    TMP DP  RH WIND       PRES   REMARKS
REDDING        PTSUNNY   77  40  26 S12       29.92F
RED BLUFF      CLOUDY    77  46  33 SW7       29.93F
OROVILLE       MOSUNNY   79  38  22 S20G28    29.95F
$$
CAZ016>018-010100-
SOUTHERN SACRAMENTO VALLEY

CITY           SKY/WX    TMP DP  RH WIND       PRES   REMARKS
AUBURN         SUNNY     73  37  27 S10       30.03S
BEALE AFB      SUNNY     78  37  22 S17       29.94S
LINCOLN        FAIR      77  32  19 S15       29.96F
MARYSVILLE     SUNNY     77  40  26 S18       29.95F
SAC INTL ARPT  MOSUNNY   73  44  35 S16       29.96F
MATHER AIRPORT SUNNY     73  37  27 S14       29.99F
DOWNTOWN SAC   N/A       71  MM  MM MISG
SAC EXEC ARPT  SUNNY     70  43  37 SW14G25   29.99S
VACAVILLE      SUNNY     72  43  35 SW17G24   29.99F
TRAVIS AFB     SUNNY     69  43  38 SW22G33   29.98S
$$
CAZ019>021-010100-
SAN JOAQUIN VALLEY

CITY           SKY/WX    TMP DP  RH WIND       PRES   REMARKS
STOCKTON       SUNNY     74  36  25 W20G28    30.00F
MODESTO        SUNNY     77  40  26 NW16      29.98F
MERCED         SUNNY     82  37  20 N14       29.95F
LEMOORE        SUNNY     89  41  18 N13       29.93F
FRESNO         MOSUNNY   89  40  17 NW7       29.93F
HANFORD        SUNNY     91  40  16 VRB6      29.92F
PORTERVILLE    SUNNY     91  48  22 NW8       29.93F
BAKERSFIELD    SUNNY     91  44  19 W14       29.91F
$$
CAZ011-012-071-010100-
NORTHERN MOUNTAINS

CITY           SKY/WX    TMP DP  RH WIND       PRES   REMARKS
YREKA          MOSUNNY   68  15  13 W17G28    29.96S
MOUNT SHASTA   MOSUNNY   63  30  28 CALM      29.99F
ALTURAS        PTSUNNY   70  34  26 W16G25    29.97F
$$
CAZ011-012-071-010100-
SIERRA NEVADA MTNS

CITY           SKY/WX    TMP DP  RH WIND       PRES   REMARKS
BLUE CANYON    SUNNY     61  26  26 S15G23    30.16F
TRUCKEE        SUNNY     64  30  27 SW15G29   30.13F
TAHOE VLY ARPT SUNNY     64  28  25 S12G25    30.14F
MAMMOTH LAKES  FAIR      67  26  21 NW13G26   30.22F
$$




USA.gov is the U.S. government's official web portal to all federal, state and local government web resources and services.